Location: Leiter
(44.7178°N, 106.2687°W)
Time: 00:42:42
(UTC+00:00)

CUTE 1.7 + AOD 2 - Pass Details

Date: 02 July 2022
Orbit: 589 x 608 km, 97.7° (Epoch: 17 August)

Event Time Altitude Azimuth Distance (km) Brightness Sun altitude
Rises 10:20:16 0° 22° (NNE) 2,851 ? -9.5°
Reaches altitude 10° 10:22:40 10° 33° (NNE) 1,940 ? -9.2°
Maximum altitude 10:26:25 31° 96° (E) 1,060 ? -8.7°
Drops below altitude 10° 10:30:06 10° 159° (SSE) 1,917 ? -8.2°
Sets 10:32:27 0° 170° (S) 2,810 ? -7.9°
